Location: Ferchesar
(52.6477°N, 12.4298°E)
Time: 15:22:56
(UTC+01:00)

deb Explorer IX - Pass Details

Date: 10 December 2021
Orbit: 544 x 1082 km, 38.8° (Epoch: 18 January)

Event Time Altitude Azimuth Distance (km) Brightness Sun altitude
Rises 08:38:35 0° 225° (SW) 3,371 ? 2.3°
Reaches altitude 10° 08:42:19 10° 203° (SSW) 2,309 ? 2.7°
Maximum altitude 08:45:12 15° 170° (S) 1,910 ? 3.1°
Drops below altitude 10° 08:47:53 10° 137° (SE) 2,121 ? 3.3°
Sets 08:51:04 0° 113° (ESE) 2,932 ? 3.7°
